Zurück zum Katalog

FENGYUN 1C DEB

AktivPO
NORAD 30528·DEBRIS·🇨🇳 China

Gestartet May 10, 1999 von Taiyuan Satellite Launch Center

Loading…

Nächste Überflüge (nächste 24 Stunden)

TLE

AktuellSource: Space-Track

Epoche: Sep 14, 2026, 09:33 UTC

1 30528U 99025AJS 26257.39839442  .00000418  00000-0  21780-3 0  9991
2 30528  98.2034 110.0095 0143970 148.7566 336.0601 14.13833291 10301

Verfolge FENGYUN 1C DEB in Echtzeit mit AllMySat

Download on the App Store